TimePST,TemperatureF,Dew PointF,Humidity,Sea Level PressureIn,VisibilityMPH,Wind Direction,Wind SpeedMPH,Gust SpeedMPH,PrecipitationIn,Events,Conditions,WindDirDegrees,DateUTC
12:53 AM,51.1,36.0,56,30.11,10.0,Calm,Calm,-,N/A,,Clear,0,2013-02-01 08:53:00
1:53 AM,51.1,36.0,56,30.11,10.0,Calm,Calm,-,N/A,,Clear,0,2013-02-01 09:53:00
2:53 AM,51.1,36.0,56,30.10,10.0,Calm,Calm,-,N/A,,Clear,0,2013-02-01 10:53:00
3:53 AM,48.0,36.0,63,30.11,10.0,North,3.5,-,N/A,,Clear,360,2013-02-01 11:53:00
4:53 AM,48.9,37.0,64,30.10,10.0,Calm,Calm,-,N/A,,Clear,0,2013-02-01 12:53:00
5:53 AM,48.0,36.0,63,30.13,10.0,Calm,Calm,-,N/A,,Clear,0,2013-02-01 13:53:00
6:53 AM,48.0,35.1,61,30.13,10.0,Calm,Calm,-,N/A,,Clear,0,2013-02-01 14:53:00
7:53 AM,53.1,37.0,55,30.12,10.0,Calm,Calm,-,N/A,,Clear,0,2013-02-01 15:53:00
8:53 AM,63.0,37.9,40,30.11,10.0,Calm,Calm,-,N/A,,Clear,0,2013-02-01 16:53:00
9:53 AM,66.9,37.0,33,30.12,10.0,Calm,Calm,-,N/A,,Clear,0,2013-02-01 17:53:00
10:53 AM,70.0,36.0,29,30.12,10.0,SE,6.9,-,N/A,,Clear,140,2013-02-01 18:53:00
11:53 AM,73.0,37.0,27,30.12,10.0,SE,8.1,-,N/A,,Clear,130,2013-02-01 19:53:00
12:53 PM,73.9,37.9,27,30.10,10.0,SSW,6.9,-,N/A,,Clear,200,2013-02-01 20:53:00
1:53 PM,73.0,37.0,27,30.10,10.0,SSE,6.9,-,N/A,,Clear,150,2013-02-01 21:53:00
2:53 PM,73.0,33.1,23,30.08,10.0,Calm,Calm,-,N/A,,Clear,0,2013-02-01 22:53:00
3:53 PM,73.0,36.0,26,30.09,10.0,South,4.6,-,N/A,,Clear,170,2013-02-01 23:53:00
4:53 PM,70.0,37.9,31,30.08,10.0,SSW,3.5,-,N/A,,Clear,200,2013-02-02 00:53:00
5:53 PM,68.0,39.0,35,30.10,10.0,Calm,Calm,-,N/A,,Clear,0,2013-02-02 01:53:00
6:53 PM,64.9,39.9,40,30.12,10.0,Calm,Calm,-,N/A,,Clear,0,2013-02-02 02:53:00
7:53 PM,63.0,41.0,45,30.12,10.0,NW,8.1,-,N/A,,Clear,310,2013-02-02 03:53:00
8:53 PM,63.0,39.9,43,30.14,10.0,Calm,Calm,-,N/A,,Clear,0,2013-02-02 04:53:00
9:53 PM,60.1,42.1,51,30.14,10.0,Calm,Calm,-,N/A,,Clear,0,2013-02-02 05:53:00
10:53 PM,57.9,42.1,56,30.15,10.0,Calm,Calm,-,N/A,,Clear,0,2013-02-02 06:53:00
11:53 PM,57.0,41.0,55,30.15,10.0,Calm,Calm,-,N/A,,Clear,0,2013-02-02 07:53:00